Regional Weather Roundup
Issued by NWS Newport/Morehead, NC

Current Version | Previous Version | Graphics & Text | Print | Product List | Glossary Off
Versions: 1 2 3 4 5 6 7 8 9 10 11 12 13 14 15 16 17 18 19 20 21 22 23 24 25 26 27 28 29 30 31 32 33 34 35 36 37 38 39 40 41 42 43 44 45 46 47 48 49 50

000
ASUS42 KMHX 290425
RWRMHX
WEATHER ROUNDUP FOR EASTERN NORTH CAROLINA
NATIONAL WEATHER SERVICE NEWPORT/MOREHEAD CITY NC
1200 AM EDT FRI APR 29 2016

NOTE: "FAIR" INDICATES FEW OR NO CLOUDS BELOW 12,000 FEET
WITH NO SIGNIFICANT WEATHER AND/OR OBSTRUCTIONS TO VISIBILITY

NCZ015>017-031-032-045>047-102-103-290500-
NORTH COAST

CITY           SKY/WX    TMP DP  RH WIND       PRES   REMARKS
EDENTON        CLOUDY    67  67  99 NE5       29.91R
ELIZABETH CITY CLOUDY    57  57 100 N9        29.93R FOG
KITTY HAWK     FOG       58  58 100 N5        29.91R VSB 1/4
MANTEO         NOT AVBL

$$

NCZ045>047-081-094-103-104-290500-
CENTRAL COAST

CITY           SKY/WX    TMP DP  RH WIND       PRES   REMARKS
FRISCO         CLOUDY    70  68  93 SW12G18   29.91R
SWANQUARTER    NOT AVBL

$$

NCZ095-097-098-100-101-290500-
SOUTHERN COAST

CITY           SKY/WX    TMP DP  RH WIND       PRES   REMARKS
BEAUFORT       MOCLDY    70  68  93 SW14      29.91F
CEDAR ISLAND   NOT AVBL
JACKSONVILLE   CLOUDY    70  63  78 SW5       29.90S
PINEY ISLAND   NOT AVBL
WILMINGTON     CLOUDY    71  64  78 SW12      29.91S


$$

NCZ011>013-027>030-043-044-078>080-089-090>093-098-290500-
COASTAL PLAIN

CITY           SKY/WX    TMP DP  RH WIND       PRES   REMARKS
AHOSKIE        CLOUDY    58  57  96 N13       29.95R FOG
CLINTON        CLOUDY    68  66  94 S3        29.88F
ELIZABETHTOWN  PTCLDY    70  65  83 SE3       29.89F
GOLDSBORO      CLOUDY    68  68 100 E6        29.87F
GREENVILLE     CLOUDY    64  64 100 CALM      29.92F
HAVELOCK       CLOUDY    71  65  81 SW12      29.92R
KENANSVILLE    CLOUDY    69  65  88 CALM      29.90F
KINSTON        LGT RAIN  67  67  99 E5        29.90F
NEW BERN       CLOUDY    72  64  76 W7        29.93R
RICHLANDS      CLOUDY    71  64  78 S8        29.91S
ROCKY MOUNT    LGT RAIN  65  65 100 N6        29.90S FOG
WASHINGTON     CLOUDY    67  66  96 CALM      29.89F
WHITEVILLE     CLEAR     68  65  90 S9        29.90F

$$

AMZ130-135-150-152-154-156-158-170-250-252-270-ANZ085-086-088-633-658-670-290500-
MARINE OBSERVATIONS

STATION/POSITION TIME  TEMP    WIND        PRES    WAVE   SWELL
                       AIR SEA DIR/SP/G            HT/PER HT/PER
                 (UTC) (F)     (DEG/KT/KT) (MB)    (FT/S) (FT/S)
CHESAPEAKE LIGHT 0400   54      20/ 21/ 23 1013.9
64 E VA BEACH    NOT AVBL
DUCK             0400   58 67  350/ 15/ 17 1012.8
2 E DUCK         0341      58                N/A     3/ 4
OREGON INLET     0400   60 70  350/  5/  9 1012.6
13E OREGON INLT  0300      60                N/A     4/ 6   3/ 6
HATTERAS CG      0400   71 70  210/ 13/ 18 1012.3
DIAMOND BUOY     NOT AVBL
CAPE LOOKOUT     0400   69     220/  8/ 12 1012.6
BEAUFORT LAB     0400   70 68  220/  6/ 12 1012.0
30 SE NEW RVR IN 0325      67                N/A     4/ 5
27 SE WRIGHTSVLE 0408   71 69  220/ 10/ 14 1016.2
5 SE WRIGHTSVLE  0408   70 67  220/ 10/ 14 1013.6
225 S CAPE HAT   NOT AVBL
41 SE CHARLESTON NOT AVBL

$$




USA.gov is the U.S. government's official web portal to all federal, state and local government web resources and services.